Location: Albany
(35.0170°S, 117.8920°E)
Time: 01:03:16
(UTC+08:00)

Explorer 7 - Pass Details

Date: 27 January 2021
Orbit: 484 x 677 km, 50.3° (Epoch: 01 March)

Event Time Altitude Azimuth Distance (km) Brightness Sun altitude
Rises 23:26:08 0° 250° (WSW) 2,818 10.9 -35.1°
Enters shadow 23:27:13 - 257° (WSW) 2,472 10.5 -35.2°
Reaches altitude 10° 23:29:38 10° 278° (W) 1,857 - -35.3°
Maximum altitude 23:31:29 13° 305° (NW) 1,658 - -35.4°
Drops below altitude 10° 23:33:19 10° 331° (NNW) 1,795 - -35.5°
Sets 23:36:34 0° 1° (N) 2,631 - -35.7°
